Weather in Derevnya Pervy Voin

Russia / Oryol Oblast     53°10′51″N   36°24′31″E
temp.,
°C
wind,
m/s
gust,
m/s
humid.,
%
clouds,
%
prec.,
mm/h
press.,
hPa
HPBL,
m
21 january, fri
fri2100:00−4s71594100 0.4 1005601
03:00−4s71396100 1.4 1003553
06:00−5s61296100 1.3 1001530
09:00−5s51196100 2.6 1000445
12:00−3ssw5995100 0.5 999536
15:00−4ssw5119091 0.6 999538
18:00−6s61291100 0.1 999480
21:00−5s71495100 0.3 997689
22 january, sat
sat2200:00−4ssw61394100 0.6 998507
03:00−4ssw51196100 1.2 999573
06:00−4ssw5996100 0.9 1000457
09:00−5ssw5995100 1.4 1003368
12:00−4ssw479595 0.3 1005397
15:00−4ssw4695100 0.6 1007457
18:00−6s2497100 0.2 100965
21:00−10sse239888 0.4 101248
23 january, sun
sun2300:00−13sse229998 0.1 101412
03:00−14ese229978 0.1 101612
06:00−17ese22100100 0.0 101910
09:00−12ese239668 0.1 102365
12:00−9e229447 0.0 102590
15:00−8ne24955 0.0 102792
18:00−16ne229962 0.0 103114
21:00−19ne2210092 0.0 103321
24 january, mon
mon2400:00−17ne3510082 0.0 103459
03:00−17nne3810088 0.0 103593
06:00−16nne41010095 0.0 1035147
09:00−16nne4119878 0.0 1036174
12:00−10ne4109399 0.0 1035258
15:00−9nne41093100 0.0 1034299
18:00−13nne379754 0.0 1035107
21:00−15ne369869 0.0 103583
25 january, tue
tue2500:00−18ne2210084 0.0 103515
03:00−19nne22100100 0.0 103416
06:00−20ne2210098 0.0 103215
09:00−21ene2210095 0.0 103213
12:00−12ese11925 0.0 103089
15:00−10s11925 0.0 102735
18:00−17s119923 0.0 10279
21:00−19s2210062 0.0 102610